Wind_Speed
16 15 14 14 14 15 16 16 16 15 15 15 14 14 14 13 13 13 13 13 13 13 13 13 15 17 19 20 22 23 24 24 24 23 22 21 20 19 18 18 17 16 15 14 12 12 11 10 10 10 10 10 10 10 10 9 9 9 10 10 10 10 9 9 9 9 10 10 11 11 12 12 13 14 14 15 16 16 16 16 17 17 17 17 17
14 13 13 13 14 15 16 16 16 15 15 14 14 14 14 14 14 14 14 13 13 14 13 13 15 18 21 22 23 24 24 23 23 22 21 20 19 18 17 16 15 14 13 12 11 10 10 10 10 10 10 10 10 10 10 9 10 10 10 10 10 10 9 9 10 10 11 11 11 12 12 13 14 15 15 16 16 17 17 18 18 18 18 19 20
12 12 12 13 14 15 16 16 15 14 14 14 13 13 13 14 14 14 14 13 13 14 14 13 16 19 22 24 24 24 23 22 22 21 20 19 18 17 15 14 13 13 12 11 10 10 10 10 11 11 11 11 11 11 11 10 10 10 10 10 9 10 10 11 11 11 11 12 12 12 13 14 14 15 16 17 17 17 18 17 17 17 18 20 20
12 11 12 12 13 14 15 14 14 14 13 13 13 13 13 13 13 14 14 14 14 15 14 15 17 20 22 24 24 23 23 21 20 19 19 18 16 15 14 13 12 12 11 11 11 11 12 12 12 13 13 13 13 12 12 11 11 10 10 9 10 11 12 13 13 13 13 13 13 13 14 14 15 16 16 17 17 17 17 17 17 17 18 19 20
11 11 11 12 12 13 13 13 13 12 12 12 12 12 13 12 13 13 14 14 14 14 14 15 19 21 22 23 23 22 21 20 19 18 17 16 15 14 13 12 12 11 11 12 12 13 13 14 14 15 15 14 14 13 13 12 11 11 11 11 13 14 15 15 15 15 14 14 14 15 16 16 17 17 18 18 18 18 18 18 18 19 19 19 20
11 10 11 11 11 12 12 12 12 12 12 12 12 12 12 12 12 13 13 14 13 13 13 16 20 22 23 22 22 21 20 19 18 17 16 15 13 13 12 12 12 12 13 13 14 14 15 15 15 16 16 15 15 15 14 14 13 13 14 15 17 17 17 17 17 17 16 16 16 17 18 18 19 19 19 19 20 20 19 19 19 20 21 21 21
10 10 10 10 11 11 11 11 11 11 11 11 12 12 13 12 12 11 12 13 12 12 14 17 20 21 22 22 21 20 19 18 17 16 15 14 13 12 12 11 12 13 14 14 15 16 16 16 16 16 16 17 17 16 15 15 15 16 17 18 18 18 18 18 18 18 17 18 18 18 19 19 20 20 20 20 20 21 21 20 20 20 21 21 22
10 9 9 9 9 10 10 11 10 11 11 11 12 13 13 12 12 11 11 11 11 11 13 17 20 21 21 20 20 19 18 17 16 15 14 13 12 12 11 12 13 14 15 15 16 16 16 16 16 16 17 17 17 16 16 16 17 17 18 18 19 19 19 19 19 19 19 19 19 20 20 21 21 22 22 22 22 22 23 22 22 22 22 23 24
10 9 8 8 9 9 10 10 10 10 10 11 11 12 13 12 11 10 10 10 10 11 12 15 19 20 20 19 19 18 17 16 14 13 12 12 12 11 11 12 13 14 15 16 16 16 16 16 16 16 17 17 16 16 17 18 18 18 19 19 20 20 20 20 20 20 20 20 21 21 22 22 22 23 23 23 24 24 25 25 26 26 26 26 27
10 9 9 8 8 9 9 10 10 10 10 10 10 11 12 12 10 10 10 9 9 10 11 14 17 19 19 18 17 17 16 15 13 12 12 11 11 11 11 12 13 13 14 15 16 16 16 16 16 16 17 17 17 17 18 18 19 19 19 19 20 20 20 20 21 21 22 22 23 23 23 24 24 24 24 25 25 26 27 27 28 29 29 29 30
9 9 9 8 8 8 8 9 9 9 9 9 10 11 11 10 10 9 10 10 9 10 11 13 16 17 17 17 17 16 16 14 12 11 11 11 11 10 11 11 12 13 13 14 15 15 16 16 16 16 16 17 17 17 17 17 18 18 18 18 19 19 20 21 21 22 22 23 24 24 25 25 25 26 26 26 27 27 28 28 29 29 30 31 31
8 9 9 8 8 7 7 7 8 8 9 9 9 10 10 9 9 10 10 9 9 9 11 12 15 16 16 16 16 15 15 14 11 10 10 10 10 10 10 10 11 11 12 13 14 14 15 15 15 15 15 16 15 15 15 15 16 17 17 17 18 19 20 20 21 22 23 23 24 25 25 26 26 26 26 27 27 27 28 28 29 30 30 31 32
8 8 8 8 8 7 7 7 7 7 8 8 9 9 9 8 9 10 10 10 9 9 10 12 14 15 15 16 15 14 14 13 11 10 10 9 9 9 8 9 9 10 10 11 12 12 13 13 13 13 13 13 13 13 13 14 15 16 16 17 18 19 19 20 21 22 23 23 24 25 25 26 26 26 26 26 26 27 28 28 29 30 30 31 32
7 7 7 8 8 7 7 7 6 7 7 8 8 8 8 8 8 9 10 9 9 9 10 11 13 14 15 15 15 13 13 12 10 9 9 9 8 7 7 7 7 8 8 9 9 10 10 10 11 11 10 10 10 10 11 12 13 15 15 16 17 18 19 20 21 22 22 23 24 25 25 26 26 26 26 26 26 26 27 28 28 29 30 31 32
7 7 7 7 7 7 7 6 6 6 7 7 7 7 7 7 8 9 9 8 8 9 9 10 12 14 14 14 14 13 13 12 10 8 8 8 7 6 6 5 5 6 7 7 7 8 8 7 8 8 8 8 8 8 9 11 12 13 14 15 16 17 19 20 21 22 23 23 24 25 25 26 26 26 27 27 26 26 27 27 28 28 29 30 31
6 6 6 6 6 6 6 6 6 6 6 7 7 7 7 7 8 8 8 8 8 8 9 10 11 13 14 14 13 13 12 12 10 8 7 7 7 6 4 4 4 4 5 5 5 5 6 5 5 5 5 6 7 7 8 9 11 12 13 14 15 17 18 20 21 22 23 24 25 26 26 27 27 28 28 27 27 27 27 27 28 28 28 29 30
5 5 5 5 5 6 5 5 5 5 5 6 6 6 7 7 7 8 7 7 7 8 9 9 11 13 14 14 13 12 12 12 10 8 7 6 5 5 3 2 2 3 3 3 3 4 4 4 4 4 4 5 6 6 7 8 10 11 13 15 16 17 18 19 21 22 23 24 25 27 28 28 29 29 29 29 28 28 28 28 27 27 28 28 29
5 5 4 5 4 4 4 4 4 4 4 5 6 6 7 7 7 7 7 7 7 7 8 9 11 13 14 14 13 13 12 12 11 9 6 5 4 3 2 1 1 1 2 2 2 2 3 3 3 3 4 5 6 6 7 8 9 11 13 14 16 17 18 19 20 21 23 24 25 27 28 29 30 30 30 30 29 29 29 28 28 27 27 28 28
5 4 4 4 4 4 4 4 4 4 4 4 5 6 6 7 7 6 7 7 6 7 7 9 10 12 14 14 13 13 13 12 11 9 7 5 4 3 2 1 1 1 2 3 2 2 2 2 2 3 3 5 6 7 7 8 9 10 11 12 14 16 17 19 20 21 23 24 26 28 29 30 31 31 31 30 29 29 29 28 28 27 27 27 27
4 4 4 4 4 5 5 5 4 4 5 5 6 6 6 6 7 6 6 7 6 6 7 8 9 11 13 14 14 14 13 13 11 10 8 7 5 4 3 3 3 3 3 3 3 2 1 1 1 2 3 4 5 6 7 8 10 11 11 12 14 15 17 19 20 22 24 25 27 28 30 31 32 32 31 30 30 29 29 28 28 28 27 27 27
4 4 4 4 4 4 4 4 5 5 5 5 6 7 7 7 6 6 6 6 6 6 6 7 7 9 12 14 14 14 14 13 12 11 10 9 7 6 5 4 4 5 5 5 5 4 3 2 1 2 3 4 4 6 7 9 11 12 13 14 15 16 18 19 21 23 25 26 28 29 30 31 32 32 31 30 30 29 28 29 29 28 28 27 26
5 4 4 4 4 4 4 4 4 5 6 6 6 7 7 6 6 6 5 6 6 5 6 6 6 7 9 12 14 14 14 14 13 12 12 11 9 7 7 6 6 6 7 7 7 5 4 3 2 2 3 4 5 7 8 9 11 13 14 15 16 17 19 20 22 23 25 27 28 30 31 32 32 32 31 30 30 29 29 29 29 29 28 27 25
5 5 4 4 4 4 3 4 4 5 6 6 6 6 7 6 6 6 6 6 6 6 6 6 6 6 7 9 12 13 14 14 14 13 13 12 11 10 9 8 8 8 8 9 9 8 6 5 4 4 5 6 7 9 10 11 13 14 15 16 17 19 20 21 22 24 26 27 29 30 31 32 32 31 30 30 30 30 30 30 30 29 28 27 25
5 5 5 4 4 3 4 4 4 5 6 6 6 6 7 7 6 6 7 6 6 6 6 6 6 6 5 7 9 11 13 14 14 14 14 13 13 11 11 10 10 10 10 11 11 11 9 7 6 6 7 9 10 10 12 13 14 15 17 18 19 20 21 22 23 25 27 28 29 30 31 31 31 31 30 29 29 30 30 30 30 29 28 26 24
5 5 4 4 4 4 4 4 4 5 5 6 6 6 6 6 6 6 6 7 7 7 7 7 7 6 6 6 6 8 10 13 14 15 14 14 14 13 12 12 12 13 12 12 13 13 13 11 10 9 9 11 12 13 14 15 16 17 18 19 20 21 22 23 24 26 27 28 29 29 30 30 30 30 30 29 29 30 30 31 30 29 28 27 24
5 5 5 5 5 4 4 5 4 5 5 6 6 6 6 6 6 6 6 7 7 8 8 8 7 7 7 6 6 7 9 11 13 14 14 14 14 13 13 13 14 14 15 14 14 14 14 14 13 12 11 12 13 14 15 16 17 18 19 20 21 22 23 24 25 26 27 28 28 28 29 29 29 30 30 30 30 30 30 30 30 29 28 27 24
6 6 5 5 6 5 5 5 5 5 6 6 6 6 6 6 7 7 7 7 8 8 8 8 8 8 8 7 7 6 7 9 11 12 13 13 13 13 14 14 15 15 16 17 16 16 16 16 15 15 14 14 14 15 15 17 18 19 20 21 22 23 23 24 25 26 27 27 27 28 28 28 29 29 30 30 30 29 29 30 29 29 28 27 25
6 6 6 6 6 6 6 5 5 5 6 6 7 6 6 7 7 8 7 8 8 8 9 8 8 8 8 8 7 7 7 8 9 10 11 12 13 13 14 15 16 17 17 18 18 18 17 17 16 16 16 16 16 17 18 18 19 19 20 21 21 22 23 24 25 26 26 27 27 27 28 28 28 29 29 30 30 29 28 28 28 28 28 27 25
6 6 7 6 6 6 6 6 5 5 5 6 7 7 6 7 8 8 8 8 8 8 9 9 8 8 8 8 8 7 7 8 8 9 10 11 12 13 14 16 17 17 18 17 17 17 18 17 17 16 16 17 18 19 20 20 20 21 21 21 22 22 23 24 25 25 25 26 27 27 27 28 28 29 29 30 30 29 28 27 27 27 27 27 25
6 7 7 7 7 7 7 7 6 6 6 6 6 6 6 7 8 8 8 8 8 9 9 9 9 8 8 8 8 8 7 7 7 8 10 11 11 12 14 15 16 16 16 15 14 15 16 16 17 17 17 17 19 20 21 21 21 21 22 22 22 22 23 24 24 24 25 26 27 27 27 28 29 29 30 30 30 30 28 27 26 26 26 26 25
8 8 8 8 8 8 8 7 7 7 7 6 6 6 6 7 8 8 8 9 9 10 10 9 9 9 9 9 8 8 7 7 7 8 9 10 11 12 13 14 14 14 13 13 11 12 14 15 16 18 18 18 18 19 20 21 21 21 22 23 22 22 22 23 24 24 25 26 26 27 27 28 29 29 30 30 30 30 29 28 26 25 24 24 24
10 9 9 10 10 9 9 8 8 8 7 7 6 6 6 7 7 8 8 9 10 10 10 10 10 9 9 9 9 8 7 8 8 8 9 10 11 11 12 13 13 13 12 12 12 12 14 16 16 17 18 17 18 19 19 20 20 21 22 22 22 22 22 22 23 24 25 25 26 26 27 28 28 29 29 29 29 29 29 29 27 25 23 22 22
11 11 11 11 11 11 10 10 9 9 8 7 7 7 7 7 7 7 8 8 9 10 11 11 10 10 10 10 9 9 8 8 8 8 9 10 10 11 11 12 12 12 13 14 13 13 14 16 17 17 18 17 18 19 18 19 19 20 21 22 22 23 23 23 23 24 25 26 26 26 27 28 28 28 29 29 29 29 29 29 27 25 22 20 20
13 12 12 12 12 12 12 11 10 10 9 8 7 7 7 7 7 7 7 8 9 9 10 11 11 11 10 10 10 9 9 8 8 9 9 10 10 11 11 12 12 13 14 14 14 14 14 15 16 17 18 17 18 19 19 19 19 20 20 21 22 23 24 24 25 25 26 26 26 26 27 27 28 28 28 28 28 28 28 28 27 25 22 19 18
14 14 14 13 13 13 13 13 11 11 10 9 9 8 8 8 7 7 7 8 8 8 9 10 11 10 10 10 10 10 9 9 10 10 10 10 10 11 12 13 13 14 15 15 16 15 14 14 15 16 17 17 18 19 19 20 20 21 21 21 22 23 24 25 26 26 27 27 26 26 27 27 27 28 28 28 28 28 27 27 27 25 22 19 18
16 15 15 15 15 14 14 14 13 12 11 10 10 9 9 9 8 8 8 8 8 8 8 9 9 10 10 11 11 11 10 10 11 11 11 11 11 11 12 13 13 14 15 15 16 16 15 14 14 16 16 16 17 18 19 19 20 21 22 22 23 24 24 25 26 27 27 27 27 27 26 26 26 27 28 28 28 27 27 26 26 24 22 19 18
18 17 17 16 16 16 15 15 14 13 13 12 11 11 10 10 10 9 9 8 8 8 8 9 9 9 10 11 11 11 10 10 11 11 11 11 11 11 11 12 13 14 14 15 16 16 16 15 15 15 16 16 16 17 19 20 20 21 22 23 24 25 25 25 26 27 28 27 28 27 27 26 26 26 27 27 28 27 26 26 25 24 22 20 19
20 19 18 18 17 17 17 16 15 15 15 14 12 12 11 11 11 11 10 9 9 9 9 9 10 10 10 11 11 11 11 11 11 12 11 11 11 11 11 12 13 14 14 15 16 16 17 17 16 16 16 16 16 17 19 20 21 23 24 24 24 25 26 25 25 26 27 27 27 27 26 26 25 25 26 26 27 27 26 25 24 23 22 20 19
21 20 20 19 19 19 18 18 17 17 16 16 14 13 13 13 12 12 12 11 11 11 11 11 11 11 11 11 12 12 12 12 12 12 12 12 12 12 13 13 14 15 15 16 17 17 18 18 18 18 17 17 17 18 19 21 23 24 26 26 25 24 25 25 25 26 26 26 26 26 25 25 24 24 25 25 27 28 27 25 23 22 22 21 19
23 22 21 20 20 19 19 19 19 19 18 17 17 15 15 14 14 14 14 14 13 13 13 13 12 12 12 12 12 13 13 13 13 14 14 14 14 14 15 15 16 16 17 17 18 18 19 19 19 19 19 19 19 20 21 22 24 25 27 28 28 27 26 25 24 25 26 26 25 25 25 25 24 23 23 24 25 27 26 24 22 22 22 21 20
23 22 21 21 20 20 20 20 20 20 20 19 19 18 18 17 16 15 15 16 15 15 15 14 14 14 14 13 13 14 14 14 15 15 15 16 16 16 16 17 18 18 18 19 19 19 20 20 20 21 22 21 21 22 22 23 25 27 28 29 30 30 29 27 25 25 27 27 25 23 23 24 23 22 22 22 24 25 25 23 21 21 21 20 20
22 22 22 21 21 20 20 20 20 20 21 20 20 20 20 19 19 18 18 17 17 17 16 16 15 15 15 15 15 15 15 15 16 16 16 17 17 17 17 18 19 19 20 20 20 21 22 22 22 23 24 23 23 24 25 25 26 28 29 30 31 31 31 30 27 26 26 27 27 23 20 22 23 21 20 21 23 24 23 21 20 19 20 20 19
22 22 22 22 22 21 20 20 20 20 21 21 21 21 21 21 21 20 20 19 18 18 18 17 17 17 16 16 16 16 16 17 17 17 18 18 19 19 19 20 20 21 22 22 22 23 24 25 25 26 26 26 26 26 27 27 28 29 29 30 31 32 32 32 30 27 26 27 28 25 20 19 21 21 19 20 22 22 20 19 19 18 18 19 19
23 23 22 22 23 22 21 20 20 21 21 21 21 22 22 22 22 22 21 21 20 20 20 20 19 19 18 18 18 17 18 18 19 19 20 20 21 21 21 22 22 23 23 24 24 25 26 27 27 27 27 28 28 28 28 29 29 29 29 30 31 32 32 32 32 29 27 26 28 26 22 19 20 20 18 19 20 20 19 19 18 18 17 18 18
24 23 23 23 23 23 22 21 21 22 22 22 22 23 23 23 24 23 23 22 22 22 22 22 22 22 21 21 20 20 20 21 21 22 22 22 23 23 23 23 24 24 25 25 26 26 27 28 28 28 27 28 29 29 29 30 30 30 30 31 31 32 32 32 31 29 27 26 28 27 22 19 20 20 18 18 19 19 19 18 18 18 17 17 17
23 23 24 24 24 23 22 21 21 22 22 22 23 23 23 24 24 24 24 24 23 23 23 23 23 23 23 23 22 22 22 23 24 25 25 25 25 25 25 25 25 26 26 26 27 27 28 29 29 29 29 29 30 30 30 31 31 31 31 31 31 31 31 31 30 28 26 25 27 28 24 20 20 20 17 17 18 18 19 19 18 18 17 17 17
23 24 25 25 25 24 23 22 23 23 23 23 23 23 24 24 24 25 25 24 24 24 23 24 24 24 24 24 24 24 24 25 26 27 27 27 26 26 26 26 26 26 27 27 27 28 29 30 30 30 30 30 31 31 31 31 32 31 31 31 31 31 31 31 29 27 26 24 24 26 25 21 20 21 18 17 18 18 18 19 18 18 18 17 17
23 25 25 25 25 26 25 23 23 24 24 24 24 24 24 25 25 25 25 25 24 24 24 24 24 25 25 25 25 25 25 25 26 27 27 28 28 27 27 27 27 27 27 27 28 29 30 31 31 31 31 31 31 31 31 31 31 31 31 31 30 30 31 31 29 27 26 24 23 23 24 21 20 22 20 18 18 17 17 19 19 19 19 18 17
21 23 24 24 25 26 25 23 23 24 25 25 25 25 25 25 25 25 25 25 25 24 24 23 23 24 25 26 25 25 25 26 26 26 27 27 28 28 28 28 27 27 27 28 29 30 30 31 31 32 32 32 32 31 31 30 31 31 32 31 30 30 31 31 30 28 26 24 23 23 23 22 21 22 22 19 18 17 17 18 19 19 19 18 17
21 22 22 23 24 24 24 23 23 24 25 25 24 24 25 25 26 26 26 26 25 24 23 23 23 23 24 25 25 24 24 24 24 25 26 27 28 29 30 30 30 29 29 30 30 31 31 32 32 32 32 32 32 32 31 30 30 31 32 31 30 31 32 31 30 30 27 23 22 22 23 22 21 22 23 21 19 18 16 17 18 19 19 17 16
20 20 21 22 22 21 21 21 22 23 25 25 25 25 25 26 27 28 28 28 27 26 25 24 24 24 24 24 25 25 25 25 25 26 26 28 29 31 32 33 33 33 33 33 33 34 34 34 34 34 34 33 33 33 32 31 32 32 33 32 32 32 33 31 30 31 29 24 21 21 23 22 21 21 22 23 22 18 16 16 16 17 19 18 16
Wind_Direction
111 110 108 106 106 105 105 105 105 104 102 100 98 96 95 94 92 89 86 85 91 100 104 107 110 110 110 109 109 109 109 109 109 108 107 106 105 104 102 101 98 96 93 90 85 80 74 67 61 54 49 46 43 40 37 34 32 32 33 34 33 32 31 31 29 29 26 23 20 17 14 11 9 7 5 3 -0 358 358 358 356 354 353 351 353
110 110 109 109 109 108 108 108 107 106 103 99 95 92 91 92 92 90 89 87 91 100 104 108 112 112 112 113 113 112 111 111 111 110 108 106 105 103 102 100 97 94 89 84 78 73 67 61 55 52 50 50 48 47 44 42 40 40 39 38 37 37 36 37 36 34 31 28 26 23 21 19 17 15 12 9 5 3 3 2 359 357 356 354 353
112 112 113 114 113 113 112 111 110 107 102 98 94 92 91 89 89 89 89 89 93 101 106 110 113 114 115 115 115 115 114 114 114 112 110 108 106 104 102 99 94 88 83 78 72 67 62 59 58 58 59 58 57 55 52 48 46 43 41 40 41 42 42 42 41 39 38 36 34 32 30 28 25 23 19 15 10 6 5 2 359 357 356 355 353
115 116 116 117 118 117 115 113 111 107 102 99 97 95 92 88 87 87 88 90 97 105 109 112 115 116 118 117 117 117 116 116 115 113 111 109 107 104 100 94 89 83 78 73 68 65 64 65 65 65 64 62 59 56 53 50 48 46 45 47 49 52 53 53 52 49 48 46 43 41 38 35 32 29 26 22 17 10 5 1 358 357 355 353 350
120 121 122 123 121 118 115 113 110 107 103 100 98 96 93 90 86 85 85 89 99 108 111 114 118 119 119 119 119 118 118 117 115 113 111 109 105 100 94 90 86 81 76 72 69 69 70 69 68 67 64 62 59 56 54 52 52 52 55 58 60 61 61 60 59 56 53 50 47 45 42 40 37 33 30 27 24 17 10 5 1 359 357 352 348
127 128 128 127 122 118 114 110 108 106 104 100 97 95 91 86 83 84 83 87 99 110 114 118 121 121 121 121 121 121 121 119 116 114 111 106 100 94 90 87 83 79 75 74 73 72 71 69 68 67 66 64 62 59 58 58 58 60 63 65 65 65 64 62 60 57 55 52 49 46 44 42 40 37 33 30 27 23 17 10 4 2 360 354 348
132 131 130 128 124 120 115 112 111 108 105 101 98 93 88 84 84 85 84 88 99 109 116 121 123 123 124 125 124 124 123 120 118 114 109 102 96 91 88 85 81 79 77 75 72 70 69 68 68 68 70 68 65 64 64 66 66 67 68 68 67 66 64 62 60 57 54 51 49 45 43 41 39 36 33 30 27 24 19 13 6 3 -0 355 349
133 131 130 129 127 123 119 118 116 112 107 102 98 93 90 90 90 89 87 90 98 107 116 123 125 126 128 128 127 126 123 121 118 113 106 100 95 91 87 83 81 80 77 74 72 69 68 67 68 70 71 70 68 69 70 71 69 68 68 67 65 63 60 57 55 53 50 47 45 42 40 38 35 33 30 27 24 20 16 12 8 5 2 358 354
134 133 132 130 127 124 122 121 118 113 107 102 98 97 97 97 97 95 93 95 99 107 118 126 129 130 130 130 129 128 124 122 119 112 105 100 97 91 87 84 82 79 76 74 71 70 69 68 69 71 71 72 73 74 73 72 70 68 66 63 61 58 55 52 49 46 44 41 39 37 36 34 32 30 27 25 22 20 16 13 10 7 5 1 358
136 135 135 132 129 125 124 123 117 111 107 102 100 101 101 101 104 104 103 103 104 110 122 131 133 133 133 133 132 129 127 125 121 112 106 103 99 93 88 85 82 78 75 73 71 70 70 70 71 72 75 77 79 77 75 74 71 67 64 61 59 56 52 48 45 42 39 37 34 33 31 30 28 27 25 23 21 20 18 16 13 10 7 3 0
138 138 138 136 132 129 128 123 117 110 106 104 103 103 104 105 110 112 109 107 107 114 127 136 136 136 136 135 134 132 131 130 123 113 108 105 101 95 92 88 83 79 76 73 71 70 70 71 73 75 79 81 80 78 75 73 70 65 61 59 57 54 51 47 44 40 37 35 32 30 28 26 25 23 22 21 19 18 17 15 14 11 8 5 3
140 143 143 141 138 135 132 123 116 111 108 108 108 107 108 111 114 114 110 106 107 116 130 140 140 139 140 139 138 137 136 135 127 117 111 108 103 98 94 89 84 79 76 73 71 70 70 70 72 77 81 80 78 75 72 70 68 63 58 56 55 52 50 46 42 38 34 32 29 27 25 22 20 19 18 17 16 14 14 13 13 11 9 6 5
143 149 148 145 143 141 136 126 121 120 116 116 115 113 112 112 116 115 110 106 106 115 130 142 144 144 145 144 143 142 141 140 132 122 117 112 106 100 96 90 85 80 75 73 71 70 69 70 72 74 76 76 73 70 67 65 66 63 56 52 50 47 45 43 40 36 32 30 27 24 21 19 16 14 13 13 12 11 10 10 10 9 8 6 5
147 152 153 149 147 144 140 134 131 130 125 123 121 118 114 113 118 118 112 107 106 113 129 144 149 151 151 150 148 147 147 146 139 127 121 115 108 102 97 88 83 79 75 72 70 68 66 68 72 72 70 67 63 61 61 61 62 63 57 49 45 42 39 36 34 32 29 27 24 22 19 16 14 11 10 8 8 7 7 7 6 6 5 5 5
153 155 156 154 150 147 147 143 140 136 133 131 127 124 121 117 121 122 115 110 110 115 130 145 154 157 157 156 154 153 153 153 146 133 125 122 116 108 98 86 78 74 72 69 66 66 62 62 69 71 67 61 53 47 50 57 59 59 57 49 42 38 34 30 28 25 23 21 19 17 15 14 12 9 7 5 4 4 3 3 3 3 2 3 4
155 156 155 156 153 151 153 151 146 140 137 139 137 133 128 124 122 123 119 116 117 121 131 146 158 162 162 161 161 160 159 159 154 144 136 131 126 117 104 91 78 66 65 62 59 60 58 56 60 63 58 51 46 38 38 49 54 52 50 45 38 33 29 25 22 19 17 15 13 12 11 10 8 7 5 4 2 1 1 1 1 1 0 1 2
154 155 155 158 158 158 160 157 149 140 139 143 145 141 136 134 131 127 127 125 122 125 134 148 161 167 167 167 168 168 167 165 163 157 150 141 131 121 110 103 82 55 51 49 50 52 49 48 48 47 44 37 33 29 29 39 45 42 40 36 31 26 22 19 16 14 12 10 8 7 7 6 4 4 3 2 1 360 359 358 358 359 359 359 0
156 161 164 165 164 166 168 167 157 149 150 150 152 154 148 146 144 139 136 133 128 130 138 150 164 171 172 173 174 175 174 173 172 170 166 155 140 131 131 134 87 15 11 15 26 36 37 37 34 30 31 27 23 21 20 27 33 34 32 28 24 20 15 12 10 8 6 4 4 4 3 3 1 1 0 360 359 359 358 357 357 357 358 358 359
166 172 178 178 177 180 183 183 172 167 171 164 162 167 163 159 158 153 146 140 138 140 142 152 165 173 176 178 181 182 181 181 180 182 182 178 173 173 182 207 255 299 317 327 340 0 20 22 21 24 27 24 21 15 9 12 17 20 22 20 17 14 9 6 4 1 0 359 359 0 0 360 359 358 357 358 358 358 357 356 355 355 356 357 358
172 179 186 189 191 191 190 188 183 182 185 178 173 176 177 172 169 164 156 150 150 152 150 153 164 175 179 183 186 189 189 187 189 193 196 196 198 203 212 231 252 269 284 295 303 312 336 9 21 32 33 28 19 7 358 358 -0 1 3 5 7 6 3 0 358 357 355 354 355 356 357 356 355 355 355 356 357 358 358 356 354 353 353 355 357
167 174 182 186 192 193 191 188 187 188 190 187 184 183 182 180 176 173 168 162 162 165 161 155 160 175 184 188 192 195 195 194 195 200 205 209 212 218 227 238 249 262 273 279 283 291 304 331 13 31 31 21 3 349 347 349 349 348 348 351 355 356 356 354 353 352 351 350 351 352 353 353 352 352 353 354 355 357 358 356 354 352 352 352 355
160 163 170 178 183 186 188 189 189 189 190 190 189 187 184 179 177 180 180 177 178 179 174 164 160 172 186 193 197 200 201 202 202 204 209 215 218 225 234 241 250 258 267 275 278 281 290 309 335 357 358 346 334 331 335 339 339 338 339 341 345 347 348 347 347 347 346 346 347 348 350 350 349 350 351 353 354 355 357 357 356 353 352 351 353
154 155 161 170 173 177 183 189 191 190 190 189 188 188 186 179 178 183 187 190 193 195 190 178 170 174 184 194 201 206 207 209 210 210 212 217 221 228 235 242 251 256 261 271 277 279 281 287 300 315 317 317 320 324 327 329 329 330 333 335 338 339 340 341 341 341 342 343 344 345 347 347 347 348 351 353 353 354 356 358 357 355 353 352 352
158 159 162 167 170 174 176 182 188 190 191 192 188 185 186 185 184 189 193 197 202 204 202 193 186 186 189 195 203 209 212 214 216 217 217 220 222 228 236 242 249 254 259 265 273 278 279 280 284 293 299 304 310 314 317 320 321 324 328 329 330 332 332 334 335 337 338 339 341 343 344 345 346 348 351 353 353 354 356 358 359 358 356 354 353
169 163 161 168 178 181 172 171 183 189 193 196 192 188 193 196 193 195 198 202 207 208 206 202 199 200 201 203 205 211 216 217 219 221 223 224 226 231 236 241 247 252 255 260 266 273 277 279 282 285 290 298 304 308 311 314 316 319 321 322 323 324 326 328 330 332 335 337 339 341 343 345 347 349 351 352 353 354 356 357 359 359 358 356 355
175 170 168 174 183 186 176 171 181 192 197 198 196 196 202 204 200 198 201 206 211 211 207 205 205 207 210 212 212 214 220 222 222 224 225 228 231 236 240 243 247 251 252 255 260 265 270 276 281 285 288 293 298 303 307 310 312 314 315 317 318 319 321 323 326 328 332 335 338 340 342 346 349 350 350 351 352 354 355 356 357 358 358 358 357
181 177 179 181 184 187 184 182 187 195 202 204 204 206 207 204 200 198 199 208 212 212 209 206 208 212 216 219 220 220 224 227 227 226 227 228 231 236 241 244 247 250 252 253 255 258 264 271 278 285 290 295 297 299 301 304 306 308 310 312 314 316 317 320 322 325 330 334 337 340 344 348 350 350 349 348 350 352 353 354 355 356 357 358 358
191 188 188 186 188 190 188 190 194 200 206 208 207 209 210 207 206 201 200 205 207 208 209 207 207 214 219 223 225 227 231 234 234 233 231 230 231 233 238 242 244 247 250 253 255 258 261 266 274 282 288 292 295 295 295 297 300 302 305 307 309 312 314 316 320 324 330 334 338 342 345 348 349 348 347 346 347 350 352 353 354 354 356 357 357
206 204 200 192 193 196 194 195 200 204 209 212 210 209 211 214 213 208 205 206 204 205 208 207 205 209 220 230 232 230 232 236 239 240 237 233 233 235 237 239 242 245 248 251 255 261 263 266 271 276 282 286 288 290 291 293 296 298 301 303 305 308 311 315 320 326 332 336 339 343 346 347 347 346 345 344 344 347 351 353 354 353 353 355 356
218 220 216 205 200 202 202 201 204 204 205 212 215 209 209 216 221 218 213 211 207 205 207 208 207 209 218 231 237 235 233 234 236 239 240 238 238 240 241 243 246 248 249 250 254 263 266 268 271 272 274 280 284 286 289 291 294 297 299 301 304 308 313 318 324 330 334 337 340 344 345 345 345 343 343 342 342 344 348 352 354 353 351 353 355
221 224 225 219 211 209 210 208 209 207 202 209 217 212 207 212 219 221 217 215 212 209 209 208 209 214 220 227 234 237 237 236 237 238 238 239 241 243 245 247 249 252 254 254 257 265 268 269 273 274 275 280 284 287 290 293 296 298 300 302 306 311 317 323 327 331 334 338 341 344 344 344 343 342 341 341 341 342 346 350 353 353 351 350 353
224 224 227 227 222 217 214 213 213 211 206 208 217 219 215 212 214 215 216 217 215 212 212 211 212 217 222 224 228 232 236 237 240 243 242 243 243 245 247 248 250 253 255 255 257 264 268 269 271 276 279 283 288 290 293 297 300 302 304 307 311 315 320 325 328 331 334 338 341 342 342 342 341 341 340 340 341 342 343 346 350 351 350 348 350
230 227 228 232 231 226 221 217 215 215 212 212 217 223 226 224 221 219 219 221 221 218 216 214 214 219 222 224 226 229 233 237 241 246 249 250 251 251 251 251 253 255 256 258 258 262 269 272 274 277 281 285 288 292 295 299 302 305 308 311 315 318 321 325 328 330 334 337 339 340 340 341 340 340 339 339 340 341 342 343 346 348 348 346 347
233 231 230 233 236 235 229 223 219 216 216 216 218 222 228 231 231 230 229 230 228 225 224 221 217 218 221 225 228 231 234 238 242 244 248 253 256 259 261 260 261 263 264 265 266 267 271 276 279 282 286 289 292 295 298 301 303 306 309 313 316 318 321 324 327 329 332 335 337 338 340 340 340 339 339 339 339 340 342 342 343 345 346 344 343
232 233 232 233 235 237 236 233 227 222 219 219 221 224 227 231 232 234 236 238 234 230 231 231 226 221 222 225 229 233 235 238 240 241 243 248 254 260 266 268 268 270 272 273 274 274 275 277 282 285 288 292 296 299 302 304 306 308 310 312 315 316 319 323 325 327 330 333 335 338 340 340 340 339 338 338 338 340 342 342 342 342 342 341 340
229 232 233 233 234 236 238 239 237 232 227 224 222 225 229 231 231 232 234 240 241 236 235 237 235 230 227 228 231 232 234 237 242 243 244 246 250 256 263 268 271 273 276 277 278 278 278 277 281 285 288 293 298 301 303 305 307 307 308 310 311 313 316 321 323 325 328 331 334 337 339 339 338 337 337 336 336 338 341 341 340 339 338 338 337
226 230 233 234 234 234 235 238 241 241 239 233 228 227 230 232 233 232 231 233 239 241 241 240 239 235 233 235 238 237 236 239 243 247 249 251 253 257 262 267 271 275 277 279 280 280 280 278 278 282 287 291 296 299 300 301 302 302 303 305 308 311 314 319 322 323 326 329 332 334 335 336 336 336 335 335 334 335 338 340 338 336 335 335 335
227 229 231 233 234 234 234 235 238 243 244 243 237 232 231 233 235 235 233 231 233 237 240 243 242 239 237 240 244 244 244 244 248 251 253 256 258 262 266 270 274 277 280 282 283 283 283 283 282 283 286 290 293 295 297 298 300 300 300 302 305 308 313 318 321 322 323 326 328 330 332 333 333 333 332 331 330 331 335 338 336 334 335 335 335
230 231 232 233 233 233 234 235 236 239 243 245 244 239 236 235 236 238 237 235 233 234 237 241 243 244 243 245 248 251 251 252 253 256 258 259 261 264 268 271 274 278 281 283 284 285 286 287 288 288 288 289 291 292 294 296 299 300 301 302 305 309 312 316 320 321 322 324 326 328 329 329 329 329 328 327 325 326 332 336 334 333 334 335 335
232 233 233 233 234 233 234 236 237 239 241 243 245 244 241 239 239 240 241 240 239 237 238 240 243 244 246 249 252 255 257 258 259 261 263 264 266 267 270 272 274 277 280 282 284 286 288 289 290 290 290 291 293 294 295 297 298 299 301 304 308 310 312 315 320 322 323 323 325 327 327 326 324 323 323 322 320 321 328 333 332 330 330 332 333
233 235 235 235 235 234 234 236 238 240 242 243 245 245 245 244 242 243 243 244 245 246 245 246 246 247 248 249 252 255 257 259 261 262 264 266 268 270 272 274 276 277 279 281 283 285 287 289 290 292 293 295 297 297 296 297 298 299 302 305 308 310 312 317 322 323 322 322 323 326 326 322 318 318 318 316 315 318 325 329 327 326 327 327 329
236 238 238 238 236 235 235 237 239 242 243 245 247 248 249 248 247 247 246 246 248 250 252 252 252 252 252 252 254 256 259 260 261 262 264 266 268 269 270 271 274 276 278 281 283 285 287 289 291 292 294 295 296 296 296 297 297 299 302 304 306 310 313 316 320 321 321 320 319 321 324 318 314 314 315 312 311 315 321 323 322 322 323 322 324
236 237 238 239 239 237 236 238 240 242 244 246 248 251 252 253 253 253 252 251 252 253 255 257 258 258 257 256 257 259 262 264 266 268 269 270 272 273 274 275 276 279 281 283 284 286 288 289 291 292 293 295 295 295 295 296 296 298 301 304 306 309 312 314 316 319 320 318 315 316 320 317 311 311 313 310 309 314 318 317 317 319 319 318 319
236 238 239 240 240 238 237 237 240 243 244 245 247 249 251 252 253 254 254 255 255 256 257 258 259 260 260 260 260 261 264 266 269 271 272 273 275 276 277 279 281 282 284 285 286 287 288 289 290 291 293 294 294 294 295 296 297 300 302 304 306 308 310 311 313 316 319 316 312 312 317 317 310 309 311 309 308 312 315 314 314 315 316 315 315
238 240 242 243 241 239 237 237 240 243 244 246 247 248 250 252 252 253 253 253 254 256 257 258 259 261 261 262 263 264 265 267 268 269 269 269 271 273 275 276 278 279 281 282 284 285 286 287 288 289 291 292 293 295 297 298 301 304 306 307 308 309 310 310 311 315 317 314 310 309 313 316 310 307 310 310 309 312 313 312 311 311 311 311 311
241 243 246 246 243 240 240 240 242 245 246 247 248 250 252 253 254 254 253 253 254 255 257 259 260 260 261 261 262 263 264 266 266 267 268 268 270 271 273 275 277 278 280 282 283 284 286 288 289 292 293 294 296 299 301 302 304 307 308 308 309 309 310 309 310 313 314 311 309 308 311 314 309 306 309 309 308 311 312 310 308 306 306 307 307
240 243 246 246 243 243 245 245 246 247 247 248 249 250 252 254 254 255 255 254 253 254 256 258 260 261 261 260 261 261 263 264 265 267 268 270 270 270 272 274 276 278 280 282 283 285 286 288 291 294 297 298 299 302 303 304 306 307 307 307 308 309 308 307 308 310 309 308 306 305 307 310 307 304 307 308 307 309 310 308 306 303 302 303 304
240 242 244 243 241 242 244 245 247 248 249 249 250 250 252 253 254 254 255 255 255 254 255 257 260 262 262 261 261 261 262 263 265 267 268 269 270 270 271 272 274 277 280 281 282 284 286 289 292 295 297 298 300 301 303 304 305 305 305 304 306 306 304 304 306 307 307 308 307 304 304 306 305 303 305 307 308 310 309 306 304 302 300 301 303
242 243 243 243 242 241 243 245 246 247 248 248 249 251 252 253 254 255 256 256 256 256 256 257 260 263 263 262 261 260 261 262 264 266 268 270 271 272 272 273 274 276 278 279 281 282 284 286 289 291 293 295 297 298 300 301 302 302 302 303 304 303 301 302 305 306 307 309 309 305 303 304 303 302 305 308 310 311 309 304 301 300 298 298 300
242 244 245 245 244 243 245 247 247 247 248 248 249 251 252 253 255 255 255 256 256 257 258 258 260 262 263 264 263 262 261 262 264 266 268 271 273 275 276 277 278 279 280 280 282 283 284 286 287 288 290 292 293 295 297 298 299 299 300 300 300 298 298 300 303 304 307 310 309 304 302 302 302 302 304 307 309 310 308 303 298 296 295 294 294
237 240 243 244 245 246 247 249 249 249 250 251 252 254 255 255 256 255 254 255 256 257 259 260 261 261 263 264 266 266 266 267 267 269 270 272 274 277 279 280 281 282 282 283 284 285 286 287 287 288 288 289 291 292 293 295 297 298 299 299 297 296 297 299 300 301 305 310 310 303 299 299 299 300 301 302 304 307 306 300 293 288 288 288 285
Height
3247 3248 3248 3249 3250 3250 3251 3252 3252 3253 3253 3254 3254 3254 3255 3255 3255 3255 3255 3254 3254 3254 3254 3255 3255 3255 3255 3255 3256 3257 3257 3258 3258 3258 3258 3259 3259 3259 3259 3259 3259 3259 3259 3259 3259 3259 3259 3259 3258 3258 3258 3257 3257 3256 3255 3255 3254 3254 3253 3252 3252 3251 3250 3249 3248 3247 3246 3245 3244 3242 3241 3240 3239 3237 3235 3234 3232 3230 3229 3228 3226 3224 3222 3221 3219
3248 3249 3250 3251 3251 3252 3253 3253 3254 3255 3255 3255 3256 3256 3256 3256 3256 3256 3256 3256 3256 3256 3256 3256 3256 3256 3256 3257 3258 3258 3259 3259 3260 3260 3260 3260 3261 3261 3261 3261 3261 3261 3261 3261 3260 3260 3260 3260 3259 3259 3258 3258 3257 3257 3256 3255 3255 3254 3253 3253 3252 3252 3251 3250 3249 3248 3247 3245 3244 3243 3242 3241 3239 3237 3236 3234 3232 3230 3229 3228 3226 3224 3221 3220 3218
3250 3251 3252 3252 3253 3254 3255 3255 3256 3256 3256 3257 3257 3257 3257 3257 3257 3257 3257 3257 3257 3257 3257 3258 3258 3258 3259 3259 3260 3260 3261 3261 3261 3262 3262 3262 3262 3262 3262 3262 3262 3262 3262 3262 3262 3262 3261 3261 3260 3260 3259 3258 3258 3257 3257 3256 3255 3255 3254 3254 3253 3252 3252 3251 3250 3248 3247 3246 3245 3244 3242 3241 3239 3238 3236 3234 3232 3231 3229 3228 3226 3223 3221 3219 3217
3252 3253 3253 3254 3255 3256 3256 3257 3257 3257 3257 3258 3258 3258 3258 3258 3258 3258 3258 3258 3258 3258 3259 3259 3259 3260 3261 3261 3261 3262 3262 3263 3263 3263 3264 3264 3264 3264 3264 3264 3264 3264 3264 3263 3263 3263 3262 3262 3261 3261 3260 3259 3259 3258 3257 3257 3256 3256 3255 3255 3254 3253 3252 3251 3250 3249 3248 3247 3246 3244 3243 3242 3240 3238 3237 3235 3233 3231 3229 3227 3225 3223 3221 3218 3216
3253 3254 3255 3256 3256 3257 3258 3258 3258 3258 3259 3259 3259 3259 3259 3259 3259 3259 3259 3259 3260 3260 3260 3261 3261 3261 3262 3263 3263 3264 3264 3265 3265 3265 3266 3266 3266 3266 3266 3266 3266 3265 3265 3265 3264 3264 3263 3263 3262 3262 3261 3260 3260 3259 3259 3258 3257 3257 3256 3256 3255 3254 3253 3252 3251 3250 3249 3248 3247 3245 3244 3242 3241 3239 3237 3236 3234 3232 3229 3227 3225 3223 3220 3218 3216
3255 3256 3256 3257 3258 3258 3259 3259 3259 3259 3259 3260 3260 3260 3260 3260 3260 3260 3260 3261 3262 3262 3262 3262 3263 3263 3264 3264 3265 3265 3266 3266 3267 3267 3267 3267 3267 3267 3267 3267 3267 3267 3266 3266 3266 3265 3265 3264 3264 3263 3262 3262 3261 3260 3260 3259 3259 3258 3258 3257 3256 3255 3255 3254 3253 3252 3250 3249 3248 3246 3245 3243 3241 3240 3238 3236 3235 3233 3230 3228 3225 3223 3220 3218 3215
3256 3257 3257 3258 3259 3259 3260 3260 3260 3260 3260 3261 3261 3261 3261 3261 3261 3262 3262 3262 3263 3263 3263 3263 3264 3264 3265 3266 3266 3267 3267 3268 3268 3269 3269 3269 3269 3269 3269 3269 3269 3268 3268 3268 3267 3267 3266 3266 3265 3264 3264 3263 3262 3262 3262 3261 3261 3260 3259 3258 3258 3257 3256 3255 3254 3253 3252 3250 3249 3247 3246 3244 3242 3240 3238 3237 3235 3233 3231 3228 3226 3223 3221 3218 3215
3257 3257 3258 3259 3259 3260 3260 3261 3261 3261 3261 3261 3261 3261 3262 3262 3263 3263 3263 3264 3264 3265 3265 3265 3265 3266 3267 3267 3268 3268 3269 3270 3270 3270 3270 3270 3270 3271 3271 3270 3270 3270 3270 3269 3269 3268 3268 3267 3267 3266 3265 3265 3264 3264 3263 3263 3262 3261 3261 3260 3259 3259 3258 3257 3256 3255 3253 3252 3250 3249 3247 3245 3243 3241 3239 3237 3235 3233 3231 3228 3226 3223 3221 3218 3215
3257 3258 3259 3260 3260 3261 3261 3261 3262 3262 3262 3262 3262 3262 3263 3263 3264 3264 3264 3265 3265 3266 3266 3266 3267 3267 3268 3269 3269 3270 3271 3271 3272 3272 3272 3272 3272 3272 3272 3272 3272 3272 3271 3271 3270 3270 3269 3269 3268 3268 3267 3266 3266 3266 3265 3264 3264 3263 3262 3262 3261 3260 3259 3258 3257 3256 3254 3253 3252 3250 3248 3246 3244 3242 3240 3238 3236 3234 3231 3229 3226 3223 3221 3218 3215
3258 3259 3259 3260 3261 3261 3262 3262 3262 3262 3263 3263 3263 3263 3263 3264 3265 3265 3265 3266 3266 3266 3267 3267 3268 3269 3269 3270 3271 3271 3272 3272 3273 3273 3273 3273 3273 3273 3274 3274 3273 3273 3273 3272 3272 3271 3271 3270 3270 3269 3269 3268 3268 3267 3267 3266 3265 3265 3264 3263 3262 3261 3260 3259 3258 3257 3256 3254 3253 3251 3249 3248 3246 3244 3241 3239 3237 3235 3232 3229 3227 3224 3221 3218 3215
3259 3259 3260 3260 3261 3262 3262 3263 3263 3263 3263 3264 3264 3264 3265 3265 3266 3266 3266 3266 3267 3267 3268 3268 3269 3270 3271 3271 3272 3273 3273 3274 3274 3274 3275 3275 3275 3275 3275 3275 3275 3274 3274 3274 3273 3273 3273 3272 3272 3271 3271 3270 3270 3269 3268 3267 3266 3266 3265 3264 3263 3262 3261 3260 3259 3258 3257 3255 3254 3252 3251 3249 3247 3244 3242 3240 3237 3235 3233 3230 3228 3225 3222 3219 3215
3259 3260 3260 3261 3261 3262 3263 3263 3263 3264 3264 3265 3265 3265 3266 3266 3267 3267 3267 3267 3268 3268 3269 3270 3270 3271 3272 3273 3273 3274 3274 3275 3275 3275 3276 3276 3276 3276 3276 3276 3276 3276 3276 3275 3275 3275 3274 3274 3273 3273 3272 3272 3271 3270 3270 3269 3268 3267 3266 3266 3265 3263 3262 3261 3260 3259 3258 3256 3255 3253 3251 3249 3247 3245 3243 3240 3238 3236 3233 3231 3228 3225 3222 3219 3216
3260 3261 3261 3261 3262 3262 3263 3263 3264 3265 3265 3266 3266 3267 3267 3267 3267 3268 3268 3268 3269 3269 3270 3270 3271 3272 3273 3274 3274 3275 3275 3276 3276 3276 3277 3277 3277 3278 3278 3278 3277 3277 3277 3277 3276 3276 3276 3276 3275 3274 3274 3273 3272 3272 3271 3270 3269 3268 3267 3267 3266 3265 3263 3262 3261 3260 3259 3257 3256 3254 3252 3250 3248 3246 3243 3241 3238 3236 3233 3231 3229 3226 3223 3220 3217
3261 3261 3262 3262 3263 3263 3264 3264 3265 3265 3266 3267 3267 3267 3268 3268 3268 3268 3269 3269 3269 3270 3270 3271 3272 3273 3274 3274 3275 3276 3276 3277 3277 3278 3278 3278 3278 3279 3279 3279 3279 3278 3278 3278 3278 3278 3277 3277 3276 3276 3275 3274 3274 3273 3272 3271 3270 3269 3268 3268 3267 3266 3264 3263 3262 3261 3259 3258 3256 3254 3253 3250 3248 3246 3244 3242 3239 3237 3234 3231 3229 3226 3223 3220 3217
3261 3262 3262 3263 3263 3264 3264 3265 3265 3266 3267 3267 3268 3268 3268 3269 3269 3269 3270 3270 3270 3270 3271 3272 3273 3273 3274 3275 3276 3277 3277 3278 3278 3279 3279 3279 3279 3280 3280 3280 3279 3279 3279 3279 3279 3279 3278 3278 3278 3277 3276 3276 3275 3274 3273 3272 3271 3270 3269 3268 3267 3266 3265 3264 3263 3261 3260 3258 3257 3255 3253 3251 3249 3247 3244 3242 3240 3237 3235 3232 3229 3227 3224 3221 3218
3262 3262 3263 3263 3264 3264 3265 3265 3266 3267 3267 3268 3268 3269 3269 3269 3270 3270 3270 3271 3271 3271 3271 3272 3273 3274 3275 3276 3277 3277 3278 3278 3279 3279 3280 3280 3280 3281 3281 3280 3280 3280 3280 3280 3280 3279 3279 3279 3278 3278 3277 3277 3276 3275 3274 3273 3272 3271 3270 3269 3268 3267 3266 3265 3263 3262 3260 3259 3257 3255 3253 3251 3249 3247 3245 3242 3240 3238 3235 3233 3230 3227 3224 3221 3219
3262 3262 3263 3263 3264 3265 3265 3266 3266 3267 3268 3268 3269 3269 3270 3270 3270 3270 3271 3271 3271 3272 3272 3272 3273 3274 3275 3276 3277 3277 3278 3278 3279 3280 3280 3281 3281 3281 3281 3281 3281 3281 3281 3281 3280 3280 3280 3279 3279 3278 3278 3277 3277 3276 3275 3274 3273 3272 3271 3270 3269 3267 3266 3265 3264 3262 3261 3259 3257 3256 3254 3251 3249 3247 3245 3243 3240 3238 3235 3233 3230 3228 3225 3222 3219
3262 3263 3263 3263 3264 3265 3265 3266 3266 3267 3268 3268 3269 3269 3270 3270 3271 3271 3271 3272 3272 3272 3272 3273 3274 3274 3275 3276 3277 3278 3278 3279 3279 3280 3281 3281 3281 3282 3282 3281 3281 3281 3281 3281 3281 3281 3280 3280 3279 3279 3278 3278 3277 3277 3276 3275 3274 3273 3271 3270 3269 3268 3266 3265 3264 3262 3261 3259 3257 3256 3254 3252 3249 3247 3245 3243 3240 3238 3235 3233 3230 3228 3225 3222 3220
3262 3263 3263 3264 3264 3264 3265 3266 3266 3267 3268 3268 3269 3269 3270 3270 3271 3271 3272 3272 3273 3273 3273 3273 3274 3275 3275 3276 3277 3278 3278 3279 3280 3280 3281 3281 3282 3282 3282 3282 3282 3282 3282 3281 3281 3281 3281 3280 3280 3279 3279 3278 3278 3277 3277 3276 3275 3273 3272 3270 3269 3268 3267 3265 3264 3262 3261 3259 3257 3256 3254 3252 3249 3247 3245 3243 3240 3238 3235 3233 3230 3228 3225 3223 3220
3262 3263 3263 3264 3264 3265 3265 3266 3266 3267 3268 3268 3269 3269 3270 3270 3271 3272 3272 3272 3273 3273 3274 3274 3274 3275 3275 3276 3277 3278 3278 3279 3280 3280 3281 3281 3282 3282 3282 3282 3282 3282 3282 3282 3281 3281 3281 3281 3280 3280 3279 3279 3278 3278 3277 3276 3275 3274 3272 3271 3269 3268 3267 3265 3264 3262 3261 3259 3257 3255 3253 3251 3249 3247 3245 3243 3240 3238 3235 3233 3230 3228 3225 3223 3221
3262 3263 3263 3264 3264 3265 3265 3266 3266 3267 3268 3268 3269 3269 3270 3271 3271 3272 3272 3273 3273 3273 3274 3274 3275 3275 3276 3276 3277 3278 3279 3279 3280 3281 3281 3282 3282 3282 3283 3283 3283 3282 3282 3282 3281 3281 3281 3281 3281 3280 3280 3279 3278 3278 3277 3276 3275 3274 3273 3271 3270 3268 3267 3265 3264 3262 3260 3258 3257 3255 3253 3251 3249 3247 3244 3242 3240 3238 3235 3233 3230 3227 3225 3223 3221
3262 3263 3263 3264 3264 3264 3265 3265 3266 3267 3267 3268 3269 3269 3270 3271 3271 3272 3272 3273 3273 3274 3274 3274 3275 3275 3276 3276 3277 3278 3279 3279 3280 3280 3281 3281 3282 3282 3283 3283 3283 3283 3282 3282 3282 3281 3281 3281 3281 3281 3280 3279 3279 3278 3277 3276 3275 3274 3273 3272 3270 3268 3267 3265 3264 3262 3260 3258 3257 3255 3253 3251 3249 3246 3244 3242 3239 3237 3235 3232 3230 3227 3224 3222 3220
3262 3262 3263 3263 3264 3264 3265 3265 3266 3266 3267 3268 3268 3269 3270 3271 3271 3272 3272 3273 3273 3274 3274 3275 3275 3276 3276 3276 3277 3278 3278 3279 3280 3280 3281 3281 3282 3282 3282 3283 3283 3283 3282 3282 3282 3281 3281 3281 3281 3280 3280 3279 3278 3278 3277 3276 3275 3274 3273 3272 3270 3268 3267 3265 3263 3262 3260 3258 3256 3255 3253 3250 3248 3246 3244 3241 3239 3236 3234 3232 3229 3226 3224 3222 3220
3261 3262 3262 3263 3263 3264 3264 3265 3265 3266 3267 3267 3268 3269 3269 3270 3271 3271 3272 3273 3273 3274 3274 3275 3275 3276 3276 3276 3277 3277 3278 3278 3279 3280 3280 3281 3281 3282 3282 3282 3283 3283 3282 3282 3282 3281 3281 3281 3281 3280 3279 3279 3278 3277 3277 3276 3275 3274 3272 3271 3270 3268 3266 3265 3263 3261 3260 3258 3256 3254 3252 3250 3248 3245 3243 3241 3239 3236 3234 3231 3229 3226 3224 3222 3220
3261 3261 3262 3263 3263 3264 3264 3265 3265 3266 3266 3267 3267 3268 3269 3269 3270 3271 3271 3272 3273 3273 3274 3274 3275 3275 3276 3276 3277 3277 3277 3278 3278 3279 3279 3280 3280 3281 3281 3282 3282 3282 3282 3282 3282 3281 3281 3280 3280 3280 3279 3278 3277 3277 3276 3275 3274 3273 3272 3271 3269 3268 3266 3265 3263 3261 3259 3258 3256 3254 3252 3250 3247 3245 3242 3240 3238 3236 3233 3231 3229 3226 3224 3222 3219
3260 3261 3261 3262 3263 3263 3264 3264 3265 3265 3266 3267 3267 3267 3268 3268 3269 3270 3270 3271 3272 3272 3273 3273 3274 3275 3275 3276 3276 3277 3277 3277 3278 3278 3279 3279 3280 3280 3280 3281 3281 3281 3281 3281 3281 3281 3280 3280 3279 3279 3279 3278 3277 3276 3275 3274 3273 3272 3271 3270 3269 3267 3266 3264 3263 3261 3259 3257 3256 3254 3252 3249 3247 3244 3242 3240 3238 3235 3233 3231 3228 3226 3224 3222 3220
3260 3260 3261 3261 3262 3263 3263 3264 3264 3265 3266 3266 3267 3267 3267 3268 3268 3269 3269 3270 3271 3271 3272 3273 3273 3274 3275 3275 3276 3276 3277 3277 3277 3277 3278 3278 3278 3279 3279 3279 3280 3280 3280 3280 3280 3280 3279 3279 3279 3278 3278 3277 3276 3275 3275 3274 3273 3271 3270 3269 3268 3266 3265 3264 3262 3260 3259 3257 3255 3253 3251 3249 3246 3244 3241 3239 3237 3235 3233 3231 3228 3226 3224 3222 3220
3259 3260 3260 3261 3261 3262 3262 3263 3264 3265 3265 3266 3266 3266 3267 3267 3268 3268 3269 3269 3270 3271 3271 3272 3272 3273 3274 3274 3275 3275 3276 3276 3276 3277 3277 3277 3277 3278 3278 3278 3278 3278 3279 3279 3279 3279 3278 3278 3278 3277 3277 3276 3275 3274 3273 3272 3271 3270 3269 3268 3267 3265 3264 3263 3261 3260 3258 3256 3254 3252 3250 3248 3245 3243 3241 3238 3236 3234 3232 3230 3228 3226 3224 3222 3220
3259 3260 3260 3260 3261 3261 3262 3263 3263 3264 3265 3265 3265 3266 3266 3267 3267 3268 3268 3269 3269 3270 3270 3271 3271 3272 3273 3273 3274 3274 3275 3275 3276 3276 3276 3276 3277 3277 3277 3277 3277 3277 3277 3278 3278 3277 3277 3277 3277 3276 3275 3275 3274 3273 3271 3271 3270 3269 3268 3267 3266 3265 3263 3262 3260 3259 3257 3255 3253 3251 3249 3247 3245 3242 3240 3237 3235 3233 3231 3230 3228 3226 3224 3222 3220
3259 3260 3260 3260 3261 3261 3261 3262 3263 3263 3264 3265 3265 3265 3266 3266 3267 3267 3268 3268 3269 3269 3269 3270 3271 3271 3272 3272 3273 3273 3274 3274 3274 3275 3275 3276 3276 3276 3276 3276 3276 3276 3276 3277 3277 3276 3276 3276 3275 3275 3274 3273 3272 3271 3270 3269 3268 3267 3266 3265 3264 3263 3262 3261 3259 3258 3256 3254 3252 3250 3248 3246 3244 3242 3239 3237 3234 3232 3231 3229 3227 3226 3224 3222 3220
3259 3259 3260 3260 3260 3261 3261 3261 3262 3263 3263 3264 3264 3265 3265 3266 3266 3267 3267 3267 3268 3268 3269 3269 3270 3270 3271 3271 3272 3272 3273 3273 3273 3274 3274 3274 3275 3275 3275 3275 3275 3275 3275 3275 3276 3275 3274 3274 3274 3273 3273 3272 3271 3270 3269 3268 3267 3266 3265 3264 3263 3262 3261 3259 3258 3256 3255 3253 3251 3249 3248 3245 3243 3241 3239 3236 3234 3232 3230 3228 3227 3225 3224 3222 3221
3258 3259 3259 3260 3260 3260 3260 3261 3261 3262 3263 3263 3264 3264 3265 3265 3265 3266 3266 3267 3267 3268 3268 3268 3269 3269 3270 3270 3270 3271 3271 3272 3272 3273 3273 3273 3273 3273 3274 3274 3274 3274 3274 3274 3274 3274 3273 3273 3272 3272 3271 3271 3270 3269 3268 3267 3266 3264 3263 3262 3261 3260 3259 3258 3257 3255 3254 3252 3251 3249 3247 3245 3243 3241 3238 3236 3234 3231 3229 3228 3226 3225 3223 3222 3221
3257 3258 3258 3259 3259 3260 3260 3260 3261 3261 3262 3263 3263 3264 3265 3265 3265 3265 3266 3266 3266 3267 3267 3267 3268 3268 3268 3269 3269 3269 3270 3271 3271 3272 3272 3272 3272 3272 3272 3272 3272 3272 3272 3272 3272 3272 3272 3271 3271 3270 3270 3269 3268 3267 3267 3266 3264 3263 3262 3260 3259 3258 3258 3257 3255 3254 3253 3251 3250 3248 3246 3244 3242 3240 3238 3235 3233 3231 3229 3227 3226 3224 3223 3222 3220
3257 3257 3257 3258 3259 3259 3259 3260 3260 3260 3261 3262 3263 3264 3264 3265 3265 3265 3265 3265 3266 3266 3266 3267 3267 3267 3267 3268 3268 3268 3269 3269 3270 3270 3271 3271 3271 3271 3271 3271 3271 3271 3271 3271 3271 3271 3271 3270 3269 3268 3268 3267 3267 3266 3265 3264 3263 3262 3261 3259 3258 3257 3256 3255 3254 3253 3252 3250 3249 3248 3246 3244 3241 3239 3237 3235 3232 3231 3229 3227 3225 3224 3223 3221 3220
3255 3256 3256 3257 3257 3258 3259 3259 3259 3260 3260 3261 3262 3262 3263 3264 3264 3265 3265 3265 3265 3265 3266 3266 3266 3267 3267 3267 3267 3267 3268 3268 3268 3269 3269 3270 3270 3270 3270 3270 3270 3270 3269 3269 3269 3269 3269 3269 3268 3267 3266 3266 3265 3264 3263 3262 3261 3260 3259 3258 3257 3256 3255 3254 3253 3251 3250 3249 3248 3247 3245 3243 3241 3238 3236 3234 3232 3230 3229 3227 3225 3223 3222 3221 3219
3253 3254 3255 3255 3256 3257 3258 3258 3259 3259 3259 3260 3260 3261 3262 3263 3263 3264 3264 3265 3265 3265 3265 3265 3266 3266 3266 3266 3266 3266 3267 3267 3267 3267 3268 3268 3268 3268 3268 3268 3268 3268 3268 3268 3268 3268 3268 3268 3267 3266 3265 3264 3264 3263 3262 3261 3260 3259 3257 3257 3256 3255 3254 3253 3252 3250 3249 3248 3247 3245 3244 3242 3240 3238 3235 3233 3231 3230 3228 3227 3225 3223 3221 3220 3219
3251 3252 3253 3254 3254 3255 3256 3257 3258 3258 3258 3259 3259 3260 3261 3261 3262 3263 3263 3264 3264 3264 3264 3265 3265 3265 3265 3265 3265 3265 3266 3266 3266 3266 3266 3266 3267 3267 3267 3267 3267 3267 3267 3266 3266 3266 3266 3266 3265 3265 3264 3263 3263 3262 3260 3259 3259 3257 3256 3255 3254 3253 3253 3253 3251 3249 3248 3247 3246 3244 3243 3241 3239 3237 3235 3232 3230 3229 3227 3226 3224 3222 3221 3219 3218
3249 3250 3251 3252 3253 3254 3254 3255 3256 3257 3257 3258 3258 3259 3260 3260 3261 3262 3262 3263 3263 3263 3264 3264 3264 3264 3264 3265 3265 3265 3265 3265 3265 3265 3265 3265 3265 3265 3265 3265 3265 3265 3265 3265 3264 3264 3264 3264 3264 3263 3263 3262 3262 3261 3259 3258 3257 3255 3254 3254 3254 3252 3251 3251 3251 3249 3247 3246 3244 3243 3241 3240 3238 3236 3234 3231 3229 3227 3226 3225 3223 3221 3220 3219 3218
3248 3248 3249 3250 3251 3252 3252 3253 3254 3255 3256 3256 3257 3258 3258 3259 3260 3260 3261 3261 3261 3262 3262 3263 3263 3263 3264 3264 3264 3264 3264 3264 3264 3264 3264 3264 3264 3264 3264 3264 3264 3263 3263 3263 3263 3263 3262 3262 3262 3262 3261 3261 3260 3259 3258 3256 3255 3253 3252 3251 3251 3251 3250 3250 3249 3248 3246 3245 3243 3242 3240 3238 3236 3235 3233 3230 3228 3226 3225 3224 3222 3221 3219 3218 3217
3246 3247 3247 3248 3249 3250 3251 3251 3252 3253 3254 3255 3255 3256 3257 3257 3258 3259 3259 3260 3260 3260 3261 3261 3261 3262 3262 3263 3263 3263 3263 3263 3263 3263 3263 3263 3263 3263 3263 3262 3262 3262 3262 3261 3261 3261 3260 3260 3260 3259 3259 3259 3258 3257 3256 3255 3253 3251 3249 3248 3248 3248 3248 3248 3247 3246 3244 3243 3242 3240 3238 3236 3235 3233 3231 3229 3227 3225 3224 3223 3222 3220 3218 3217 3216
3244 3245 3245 3246 3247 3248 3248 3249 3250 3251 3252 3253 3253 3254 3255 3256 3256 3257 3257 3258 3259 3259 3259 3260 3260 3260 3261 3261 3261 3261 3261 3261 3262 3262 3261 3261 3261 3261 3261 3261 3260 3260 3260 3260 3259 3259 3258 3258 3258 3257 3257 3257 3256 3255 3254 3253 3251 3249 3248 3247 3246 3245 3245 3245 3246 3244 3242 3240 3239 3239 3238 3235 3233 3232 3230 3228 3226 3224 3223 3222 3220 3219 3217 3216 3215
3243 3243 3244 3245 3245 3246 3246 3247 3248 3249 3250 3251 3252 3253 3253 3254 3255 3255 3256 3256 3257 3257 3258 3258 3259 3259 3259 3259 3259 3259 3259 3260 3260 3260 3260 3259 3259 3259 3259 3258 3258 3258 3258 3258 3257 3257 3256 3256 3256 3255 3254 3254 3254 3253 3252 3251 3249 3247 3246 3245 3243 3243 3242 3242 3242 3242 3241 3238 3236 3236 3236 3234 3231 3230 3229 3227 3225 3223 3222 3220 3219 3218 3216 3215 3214
3240 3241 3242 3242 3243 3244 3245 3245 3246 3247 3248 3249 3250 3251 3252 3253 3253 3254 3255 3255 3255 3256 3256 3256 3257 3257 3257 3257 3258 3258 3258 3258 3258 3258 3258 3258 3257 3257 3257 3256 3256 3256 3256 3256 3255 3255 3254 3254 3254 3253 3252 3252 3252 3251 3250 3248 3247 3246 3245 3243 3242 3241 3240 3239 3239 3239 3239 3236 3233 3233 3234 3232 3229 3228 3227 3225 3223 3222 3221 3219 3218 3216 3215 3213 3212
3237 3238 3239 3240 3241 3242 3242 3243 3244 3245 3246 3247 3248 3249 3249 3250 3251 3252 3253 3253 3254 3254 3254 3254 3255 3255 3255 3255 3255 3256 3256 3256 3256 3256 3256 3255 3255 3255 3255 3255 3254 3254 3254 3253 3253 3253 3252 3251 3251 3251 3250 3249 3249 3248 3247 3246 3245 3244 3243 3242 3240 3239 3238 3237 3235 3236 3235 3234 3231 3230 3230 3230 3227 3226 3225 3223 3222 3220 3219 3218 3216 3215 3214 3212 3211
3234 3235 3236 3238 3239 3240 3240 3241 3241 3242 3243 3244 3245 3246 3247 3247 3248 3249 3250 3251 3251 3252 3252 3252 3252 3253 3253 3253 3253 3254 3254 3253 3253 3253 3253 3253 3253 3253 3252 3252 3252 3252 3251 3251 3250 3250 3249 3248 3248 3248 3248 3247 3245 3245 3245 3244 3243 3242 3241 3240 3239 3237 3236 3234 3233 3233 3233 3231 3228 3227 3227 3227 3225 3223 3223 3221 3220 3219 3217 3216 3215 3213 3212 3211 3209
3231 3232 3234 3235 3237 3238 3238 3238 3238 3239 3241 3242 3243 3243 3244 3245 3246 3246 3247 3248 3249 3249 3250 3250 3250 3250 3250 3251 3251 3251 3251 3251 3250 3250 3250 3250 3250 3250 3250 3250 3249 3249 3249 3248 3247 3247 3246 3245 3245 3244 3244 3244 3243 3242 3242 3241 3240 3239 3238 3237 3236 3234 3233 3231 3230 3230 3230 3228 3226 3224 3224 3224 3223 3221 3220 3219 3218 3217 3215 3214 3213 3211 3210 3209 3208
3229 3230 3231 3233 3234 3235 3236 3236 3236 3237 3238 3239 3240 3241 3241 3242 3243 3244 3244 3245 3246 3246 3247 3247 3247 3248 3248 3248 3248 3249 3248 3248 3247 3247 3247 3247 3247 3248 3247 3247 3247 3246 3246 3246 3245 3244 3243 3242 3242 3241 3241 3241 3240 3240 3239 3238 3237 3236 3235 3233 3232 3231 3229 3228 3228 3227 3227 3226 3224 3222 3221 3221 3220 3218 3218 3217 3216 3215 3214 3212 3211 3209 3208 3207 3207
3226 3227 3229 3230 3231 3232 3233 3234 3234 3235 3235 3236 3237 3238 3239 3240 3240 3241 3242 3242 3243 3243 3243 3244 3244 3245 3245 3245 3246 3246 3246 3245 3245 3245 3245 3245 3245 3245 3245 3245 3244 3244 3244 3243 3243 3241 3240 3240 3239 3239 3238 3238 3238 3237 3237 3236 3234 3233 3232 3230 3230 3228 3226 3224 3224 3224 3224 3223 3222 3219 3218 3218 3217 3216 3215 3215 3214 3213 3212 3210 3209 3208 3207 3206 3205
3223 3224 3226 3227 3228 3229 3230 3231 3231 3232 3232 3232 3233 3235 3236 3237 3238 3238 3239 3239 3240 3240 3240 3241 3241 3242 3242 3242 3242 3243 3242 3242 3242 3242 3242 3242 3242 3242 3242 3242 3242 3242 3241 3241 3240 3239 3239 3238 3237 3236 3236 3235 3235 3234 3234 3234 3232 3230 3228 3227 3227 3225 3223 3221 3221 3221 3221 3221 3219 3217 3215 3215 3215 3213 3212 3212 3212 3211 3210 3209 3207 3206 3205 3204 3203
3220 3221 3223 3224 3225 3226 3227 3227 3228 3228 3228 3229 3231 3232 3233 3234 3235 3235 3236 3236 3237 3237 3237 3238 3238 3238 3239 3239 3239 3240 3239 3239 3239 3240 3240 3240 3239 3239 3239 3239 3239 3239 3239 3238 3237 3236 3236 3235 3235 3234 3233 3232 3232 3231 3231 3231 3230 3228 3226 3225 3224 3222 3220 3219 3218 3217 3218 3219 3217 3214 3213 3212 3212 3211 3210 3209 3209 3209 3208 3207 3206 3204 3203 3202 3201
3217 3218 3220 3221 3221 3223 3224 3224 3225 3225 3225 3227 3228 3229 3229 3231 3231 3232 3233 3233 3234 3234 3235 3235 3235 3235 3236 3236 3236 3237 3237 3237 3237 3237 3237 3237 3236 3236 3236 3235 3235 3235 3235 3235 3234 3233 3233 3232 3232 3231 3230 3229 3228 3228 3227 3227 3226 3225 3223 3222 3221 3219 3217 3217 3216 3214 3214 3215 3215 3212 3210 3210 3210 3209 3208 3206 3205 3206 3206 3205 3203 3202 3201 3200 3199